When you browse on this site, cookies collect data to enhance your experience and personalize the content and advertising you see.
Visit our Privacy Policy to learn more. By continuing to use the site, you agree to this use of cookies and data.
  • In United Kingdom
  • List of Countries
  • For 7 days
  • Water Temperature
  • Satellite Maps
  • Weather Map
  • Weather Widgets
  • user-avatar
    Login

    Hourly Weather Kerema

    Today, 18 July, Thursday

    Time Temperature Precipitation Wind Pressure Humidity
    00:00 +26°C° 0.5 mm 4 mps 756 mmHg 97%
    01:00 +26°C° 0.5 mm 4 mps 756 mmHg 97%
    02:00 +26°C° 0.1 mm 4 mps 756 mmHg 97%
    03:00 +26°C° 0.1 mm 4 mps 756 mmHg 97%
    04:00 +26°C° 0 mm 3 mps 755 mmHg 97%
    05:00 +26°C° 0.1 mm 3 mps 756 mmHg 97%
    06:00 +26°C° 0.1 mm 3 mps 756 mmHg 97%
    07:00 +26°C° 0.1 mm 3 mps 756 mmHg 97%
    08:00 +27°C° 0.3 mm 3 mps 756 mmHg 95%
    09:00 +27°C° 0.3 mm 3 mps 757 mmHg 92%
    10:00 +29°C° 0 mm 3 mps 757 mmHg 88%
    11:00 +29°C° 0.5 mm 4 mps 756 mmHg 87%
    12:00 +29°C° 0.5 mm 4 mps 756 mmHg 85%
    13:00 +30°C° 0.5 mm 4 mps 755 mmHg 84%
    14:00 +29°C° 0.2 mm 4 mps 755 mmHg 85%
    15:00 +29°C° 0.2 mm 5 mps 754 mmHg 86%
    16:00 +28°C° 0 mm 5 mps 755 mmHg 88%
    17:00 +27°C° 0.2 mm 5 mps 755 mmHg 90%
    18:00 +27°C° 0.2 mm 6 mps 755 mmHg 92%
    19:00 +26°C° 0.2 mm 6 mps 755 mmHg 95%
    20:00 +26°C° 0.4 mm 6 mps 756 mmHg 95%
    21:00 +26°C° 0.4 mm 6 mps 756 mmHg 95%
    22:00 +26°C° 0.4 mm 6 mps 757 mmHg 95%
    23:00 +26°C° 0.2 mm 6 mps 757 mmHg 96%

    Tomorrow, 19 July, Friday

    Time Temperature Precipitation Wind Pressure Humidity
    00:00 +26°C° 0.2 mm 5 mps 756 mmHg 96%
    01:00 +25°C° 0.2 mm 5 mps 756 mmHg 96%
    02:00 +25°C° 0 mm 4 mps 756 mmHg 96%
    03:00 +25°C° 0 mm 4 mps 756 mmHg 96%
    04:00 +25°C° 0 mm 3 mps 756 mmHg 96%
    05:00 +25°C° 0 mm 3 mps 756 mmHg 95%
    06:00 +25°C° 0 mm 2 mps 756 mmHg 95%
    07:00 +25°C° 0 mm 2 mps 757 mmHg 95%
    08:00 +26°C° 0 mm 2 mps 757 mmHg 90%
    09:00 +27°C° 0 mm 3 mps 757 mmHg 85%
    10:00 +29°C° 0 mm 3 mps 757 mmHg 80%
    11:00 +29°C° 0.2 mm 3 mps 757 mmHg 81%
    12:00 +29°C° 0.2 mm 4 mps 756 mmHg 81%
    13:00 +28°C° 0.2 mm 4 mps 756 mmHg 81%
    14:00 +28°C° 0.1 mm 4 mps 755 mmHg 82%
    15:00 +28°C° 0.1 mm 4 mps 755 mmHg 84%
    16:00 +27°C° 0.1 mm 4 mps 755 mmHg 85%
    17:00 +27°C° 0.1 mm 4 mps 755 mmHg 88%
    18:00 +26°C° 0.1 mm 4 mps 756 mmHg 91%
    19:00 +25°C° 0.1 mm 4 mps 756 mmHg 94%
    20:00 +25°C° 0.1 mm 4 mps 757 mmHg 94%
    21:00 +26°C° 0.1 mm 4 mps 757 mmHg 95%
    22:00 +26°C° 0.1 mm 4 mps 758 mmHg 96%
    23:00 +26°C° 0.3 mm 4 mps 757 mmHg 96%

    Day after tomorrow, 20 July, Saturday

    Time Temperature Precipitation Wind Pressure Humidity
    00:00 +26°C° 0.3 mm 4 mps 757 mmHg 96%
    01:00 +26°C° 0.3 mm 4 mps 757 mmHg 96%
    02:00 +25°C° 0.4 mm 4 mps 756 mmHg 97%
    03:00 +25°C° 0.4 mm 4 mps 756 mmHg 97%
    04:00 +25°C° 0.4 mm 4 mps 756 mmHg 97%
    05:00 +25°C° 0.3 mm 4 mps 756 mmHg 97%
    06:00 +25°C° 0.3 mm 4 mps 756 mmHg 97%
    07:00 +25°C° 0.3 mm 4 mps 756 mmHg 97%
    08:00 +26°C° 0.3 mm 4 mps 757 mmHg 95%
    09:00 +26°C° 0.3 mm 4 mps 757 mmHg 94%
    10:00 +26°C° 0.3 mm 4 mps 757 mmHg 93%
    11:00 +27°C° 0.3 mm 5 mps 757 mmHg 91%
    12:00 +27°C° 0.3 mm 5 mps 756 mmHg 89%
    13:00 +28°C° 0.3 mm 6 mps 756 mmHg 87%
    14:00 +27°C° 0.2 mm 6 mps 755 mmHg 88%
    15:00 +27°C° 0.2 mm 6 mps 755 mmHg 89%
    16:00 +27°C° 0.2 mm 6 mps 755 mmHg 89%
    17:00 +26°C° 0.1 mm 5 mps 755 mmHg 91%
    18:00 +26°C° 0.1 mm 5 mps 756 mmHg 92%
    19:00 +25°C° 0.1 mm 5 mps 756 mmHg 93%
    20:00 +25°C° 0.1 mm 5 mps 757 mmHg 94%
    21:00 +25°C° 0.1 mm 4 mps 757 mmHg 94%
    22:00 +25°C° 0.1 mm 4 mps 757 mmHg 94%
    23:00 +25°C° 0 mm 4 mps 757 mmHg 94%

    21 July, Sunday

    Time Temperature Precipitation Wind Pressure Humidity
    00:00 +25°C° 0 mm 4 mps 757 mmHg 95%
    01:00 +25°C° 0 mm 3 mps 756 mmHg 95%
    02:00 +25°C° 0 mm 3 mps 756 mmHg 95%
    03:00 +25°C° 0 mm 3 mps 756 mmHg 95%
    04:00 +25°C° 0 mm 3 mps 755 mmHg 95%
    05:00 +25°C° 0 mm 3 mps 756 mmHg 95%
    06:00 +25°C° 0 mm 3 mps 756 mmHg 95%
    07:00 +25°C° 0 mm 3 mps 756 mmHg 96%
    08:00 +26°C° 0 mm 3 mps 756 mmHg 91%
    09:00 +27°C° 0 mm 2 mps 756 mmHg 87%
    10:00 +28°C° 0 mm 2 mps 757 mmHg 82%
    11:00 +28°C° 0 mm 3 mps 756 mmHg 80%
    12:00 +29°C° 0 mm 3 mps 755 mmHg 77%
    13:00 +29°C° 0 mm 3 mps 754 mmHg 75%
    14:00 +29°C° 0 mm 3 mps 754 mmHg 78%
    15:00 +28°C° 0 mm 4 mps 754 mmHg 82%
    16:00 +27°C° 0 mm 4 mps 753 mmHg 85%
    17:00 +27°C° 0.1 mm 4 mps 754 mmHg 88%
    18:00 +26°C° 0.1 mm 4 mps 755 mmHg 91%
    19:00 +26°C° 0.1 mm 4 mps 755 mmHg 94%
    20:00 +26°C° 0.2 mm 4 mps 755 mmHg 94%
    21:00 +26°C° 0.2 mm 4 mps 756 mmHg 95%
    22:00 +26°C° 0.2 mm 4 mps 756 mmHg 95%
    23:00 +26°C° 0.4 mm 4 mps 756 mmHg 96%

    22 July, Monday

    Time Temperature Precipitation Wind Pressure Humidity
    00:00 +25°C° 0.4 mm 3 mps 755 mmHg 96%
    01:00 +25°C° 0.4 mm 3 mps 755 mmHg 97%
    02:00 +25°C° 0.4 mm 3 mps 755 mmHg 97%
    03:00 +25°C° 0.4 mm 3 mps 754 mmHg 96%
    04:00 +25°C° 0.4 mm 2 mps 754 mmHg 96%
    05:00 +25°C° 0.3 mm 2 mps 754 mmHg 96%
    06:00 +25°C° 0.3 mm 2 mps 755 mmHg 96%
    07:00 +25°C° 0.3 mm 1 mps 755 mmHg 96%
    08:00 +27°C° 0.2 mm 1 mps 755 mmHg 91%
    09:00 +28°C° 0.2 mm 1 mps 755 mmHg 85%
    10:00 +29°C° 0.2 mm 1 mps 755 mmHg 80%
    11:00 +30°C° 0.2 mm 1 mps 755 mmHg 79%
    12:00 +30°C° 0.2 mm 2 mps 754 mmHg 79%
    13:00 +30°C° 0.2 mm 2 mps 754 mmHg 78%
    14:00 +30°C° 0.3 mm 3 mps 753 mmHg 80%
    15:00 +29°C° 0.3 mm 3 mps 753 mmHg 82%
    16:00 +29°C° 0.3 mm 4 mps 753 mmHg 83%
    17:00 +28°C° 0.1 mm 4 mps 753 mmHg 87%
    18:00 +27°C° 0.1 mm 3 mps 754 mmHg 91%
    19:00 +26°C° 0.1 mm 3 mps 754 mmHg 95%
    20:00 +26°C° 0.7 mm 3 mps 755 mmHg 95%
    21:00 +26°C° 0.7 mm 3 mps 755 mmHg 96%
    22:00 +26°C° 0.7 mm 3 mps 756 mmHg 97%
    23:00 +26°C° 0.8 mm 3 mps 755 mmHg 97%

    23 July, Tuesday

    Time Temperature Precipitation Wind Pressure Humidity
    00:00 +26°C° 0.8 mm 3 mps 755 mmHg 97%
    01:00 +26°C° 0.8 mm 3 mps 755 mmHg 97%
    02:00 +26°C° 0.8 mm 3 mps 755 mmHg 97%
    03:00 +26°C° 0.8 mm 3 mps 755 mmHg 97%
    04:00 +26°C° 0.8 mm 3 mps 754 mmHg 97%
    05:00 +26°C° 0.5 mm 3 mps 755 mmHg 97%
    06:00 +26°C° 0.5 mm 2 mps 755 mmHg 97%
    07:00 +26°C° 0.5 mm 2 mps 755 mmHg 97%
    08:00 +27°C° 0.5 mm 2 mps 755 mmHg 93%
    09:00 +28°C° 0.5 mm 1 mps 756 mmHg 88%
    10:00 +29°C° 0.5 mm 1 mps 756 mmHg 84%
    11:00 +30°C° 0.5 mm 2 mps 755 mmHg 83%
    12:00 +30°C° 0.5 mm 2 mps 755 mmHg 83%
    13:00 +30°C° 0.5 mm 2 mps 754 mmHg 83%
    14:00 +29°C° 0.7 mm 2 mps 754 mmHg 85%
    15:00 +29°C° 0.7 mm 2 mps 753 mmHg 87%
    16:00 +28°C° 0.7 mm 2 mps 753 mmHg 90%
    17:00 +27°C° 0.3 mm 2 mps 754 mmHg 92%
    18:00 +27°C° 0.3 mm 3 mps 754 mmHg 94%
    19:00 +26°C° 0.3 mm 3 mps 755 mmHg 97%
    20:00 +26°C° 0.1 mm 3 mps 755 mmHg 97%
    21:00 +26°C° 0.1 mm 3 mps 756 mmHg 97%
    22:00 +26°C° 0.1 mm 3 mps 756 mmHg 97%
    23:00 +26°C° 0.5 mm 3 mps 756 mmHg 97%
    Show more